This is the latest recevied weather packets stored in our database for station/object N4RCT. If no packets are shown the sender has not sent any weather packets the latest 10 day(s).
| Time | Temp. | Humidity | Pressure | Rain* | Wind** | Luminosity | Snow |
|---|---|---|---|---|---|---|---|
| 1777732832 | 15.56° C | 57% | 1013.1 hPa | 0 mm | - | 613 W/m² | - |
| 1777732528 | 15° C | 58% | 1013.5 hPa | 0 mm | - | 370 W/m² | - |
| 1777732227 | 15° C | 58% | 1013 hPa | 0 mm | - | 257 W/m² | - |
| 1777731923 | 15.56° C | 56% | 1013.2 hPa | 0 mm | - | 276 W/m² | - |
| 1777731620 | 15° C | 58% | 1013.1 hPa | 0 mm | - | 424 W/m² | - |
| 1777731317 | 15° C | 61% | 1012.9 hPa | 0 mm | - | 315 W/m² | - |
| 1777731015 | 15° C | 61% | 1013.1 hPa | 0 mm | - | 262 W/m² | - |
| 1777730714 | 13.89° C | 61% | 1012.8 hPa | 0 mm | - | 426 W/m² | - |
| 1777730409 | 14.44° C | 61% | 1012.9 hPa | 0 mm | - | 175 W/m² | - |
| 1777730105 | 13.89° C | 62% | 1013 hPa | 0 mm | - | 373 W/m² | - |
| 1777729802 | 14.44° C | 65% | 1013 hPa | 0 mm | - | 188 W/m² | - |
| 1777729499 | 15° C | 67% | 1012.9 hPa | 0 mm | - | 161 W/m² | - |
| 1777729195 | 15° C | 68% | 1012.8 hPa | 0 mm | - | 333 W/m² | - |
| 1777728892 | 13.89° C | 66% | 1012.9 hPa | 0 mm | - | 373 W/m² | - |
| 1777728589 | 13.89° C | 68% | 1012.8 hPa | 0 mm | - | 270 W/m² | - |
| 1777728286 | 13.33° C | 70% | 1012.5 hPa | 0 mm | - | 462 W/m² | - |
| 1777727983 | 12.78° C | 73% | 1012.6 hPa | 0 mm | - | 178 W/m² | - |
| 1777727680 | 12.78° C | 73% | 1012.7 hPa | 0 mm | - | 122 W/m² | - |
| 1777727377 | 12.78° C | 72% | 1012.7 hPa | 0 mm | - | 140 W/m² | - |
| 1777727074 | 12.78° C | 72% | 1012.7 hPa | 0 mm | - | 153 W/m² | - |
| 1777726772 | 12.22° C | 72% | 1012.6 hPa | 0 mm | - | 134 W/m² | - |
| 1777726469 | 12.22° C | 75% | 1012.5 hPa | 0 mm | - | 102 W/m² | - |
| 1777726165 | 12.22° C | 73% | 1012.6 hPa | 0 mm | - | 98 W/m² | - |
| 1777725862 | 12.22° C | 74% | 1012.4 hPa | 0 mm | - | 99 W/m² | - |
| 1777725560 | 11.67° C | 71% | 1012.3 hPa | 0 mm | - | 92 W/m² | - |
* Rain latest hour (hover to see other rain measurements)
** Current wind speed in m/s (hover to see current wind gust speed)